GW7224 Weather Reports


time (UTC)temp
C
wind
direction
speed
KPH
gust
KPH
rain 1hr
cm
rain 24hr
cm
rain mn
cm
humidity
%
barometer
mb
20260906113532 21 354 1.6 1.6 0.00 0.00 0.00 96 1013.7
20260906113028 21 335 1.6 3.2 0.00 0.00 0.00 96 1013.3
20260906112523 21 38 3.2 6.4 0.00 0.00 0.00 96 1013.1
20260906112019 21 69 14.5 16.1 0.00 0.00 0.00 96 1013.2
20260906111518 21 47 1.6 9.7 0.00 0.00 0.00 96 1013.7
20260906111014 21 299 6.4 6.4 0.00 0.00 0.00 96 1013.7
20260906110508 21 14 3.2 4.8 0.00 0.00 0.00 96 1013.1
20260906110008 21 40 3.2 3.2 0.00 0.00 0.00 96 1013.0
20260906105503 20 43 0.0 1.6 0.00 0.00 0.00 96 1013.2
20260906104959 20 43 1.6 1.6 0.00 0.00 0.00 96 1013.0
20260906104457 21 48 1.6 1.6 0.00 0.00 0.00 96 1013.0
20260906103957 21 62 1.6 3.2 0.00 0.00 0.00 96 1012.6
20260906103455 20 25 3.2 3.2 0.00 0.00 0.00 96 1012.8
20260906102950 20 33 1.6 3.2 0.00 0.00 0.00 96 1012.8
20260906102451 20 25 1.6 1.6 0.00 0.00 0.00 96 1012.8
20260906101951 20 26 1.6 3.2 0.00 0.00 0.00 96 1012.6
20260906101446 20 29 1.6 1.6 0.00 0.00 0.00 96 1012.9
20260906100941 20 28 1.6 1.6 0.00 0.00 0.00 96 1012.8
20260906100436 20 27 0.0 1.6 0.00 0.00 0.00 96 1012.6
20260906095936 20 28 1.6 1.6 0.00 0.00 0.00 96 1012.6
20260906095431 20 31 1.6 1.6 0.00 0.00 0.00 96 1012.4
20260906094926 20 31 0.0 1.6 0.00 0.00 0.00 96 1012.5
20260906094420 20 32 1.6 1.6 0.00 0.00 0.00 96 1012.5
20260906093916 20 32 0.0 1.6 0.00 0.00 0.00 95 1012.8
20260906093413 20 31 1.6 1.6 0.00 0.00 0.00 95 1012.6
20260906092912 20 31 0.0 0.0 0.00 0.00 0.00 95 1012.6
20260906092412 21 32 0.0 1.6 0.00 0.00 0.00 95 1012.5
20260906091908 21 31 0.0 0.0 0.00 0.00 0.00 95 1012.5
20260906091403 21 31 0.0 0.0 0.00 0.00 0.00 95 1012.4
20260906090900 21 31 0.0 0.0 0.00 0.00 0.00 95 1012.3
20260906090359 21 31 0.0 1.6 0.00 0.00 0.00 95 1012.3
20260906085854 20 33 1.6 1.6 0.00 0.00 0.00 96 1012.1
20260906085353 20 34 1.6 1.6 0.00 0.00 0.00 96 1012.1
20260906084848 20 36 1.6 1.6 0.00 0.00 0.00 96 1012.4
20260906084348 20 67 1.6 1.6 0.00 0.00 0.00 96 1012.1
20260906083842 20 70 0.0 1.6 0.00 0.00 0.00 95 1012.2
20260906083338 20 72 1.6 3.2 0.00 0.00 0.00 95 1012.2
20260906082838 21 79 1.6 1.6 0.00 0.00 0.00 95 1012.3
20260906082333 21 79 0.0 0.0 0.00 0.00 0.00 95 1012.3
20260906081829 21 79 1.6 1.6 0.00 0.00 0.00 94 1012.2
20260906081324 21 79 1.6 1.6 0.00 0.00 0.00 94 1012.2
20260906080820 21 79 1.6 3.2 0.00 0.00 0.00 94 1012.3
20260906080316 21 272 3.2 3.2 0.00 0.00 0.00 95 1012.4
20260906075816 21 285 1.6 1.6 0.00 0.00 0.00 94 1012.4
20260906075315 21 285 3.2 4.8 0.00 0.00 0.00 94 1012.0
20260906074811 21 69 1.6 1.6 0.00 0.00 0.00 94 1012.2
20260906074311 21 70 0.0 0.0 0.00 0.00 0.00 94 1011.9
20260906073810 21 70 0.0 0.0 0.00 0.00 0.00 94 1012.2
20260906073305 21 70 0.0 0.0 0.00 0.00 0.00 94 1012.1
20260906072801 21 70 0.0 0.0 0.00 0.00 0.00 95 1012.1
20260906072256 21 70 0.0 0.0 0.00 0.00 0.00 94 1012.2
20260906071752 21 70 0.0 1.6 0.00 0.00 0.00 94 1012.3
20260906071252 21 69 1.6 1.6 0.00 0.00 0.00 94 1012.3
20260906070749 21 69 0.0 0.0 0.00 0.00 0.00 94 1012.4
20260906070244 21 69 0.0 0.0 0.00 0.00 0.00 94 1012.3
20260906065744 21 69 0.0 0.0 0.00 0.00 0.00 94 1012.5
20260906065239 21 70 0.0 1.6 0.00 0.00 0.00 94 1012.4
20260906064735 21 70 1.6 1.6 0.00 0.00 0.00 94 1012.4
20260906064230 21 69 1.6 1.6 0.00 0.00 0.00 94 1012.4
20260906063725 21 69 0.0 0.0 0.00 0.00 0.00 94 1012.5
20260906063221 21 70 0.0 0.0 0.00 0.00 0.00 94 1012.6
20260906062716 21 69 0.0 0.0 0.00 0.00 0.00 94 1013.0
20260906062215 21 69 0.0 0.0 0.00 0.00 0.00 94 1012.9
20260906061711 21 69 0.0 1.6 0.00 0.00 0.00 93 1012.6
20260906061207 21 69 1.6 1.6 0.00 0.00 0.00 93 1012.8
20260906060702 21 69 1.6 1.6 0.00 0.00 0.00 92 1012.9
20260906060159 22 69 0.0 0.0 0.00 0.00 0.00 92 1012.9
20260906055655 22 69 0.0 0.0 0.00 0.00 0.00 91 1012.9
20260906055150 22 69 0.0 1.6 0.00 0.00 0.00 91 1012.5
20260906054645 22 69 0.0 0.0 0.00 0.00 0.00 91 1013.1
20260906054140 22 70 0.0 0.0 0.00 0.00 0.00 92 1013.0
20260906053637 22 70 0.0 0.0 0.00 0.00 0.00 90 1013.1
20260906053137 22 69 1.6 1.6 0.00 0.00 0.00 89 1012.8
20260906052633 22 57 1.6 3.2 0.00 0.00 0.00 88 1012.9
20260906052129 23 251 0.0 0.0 0.00 0.00 0.00 88 1013.1
20260906051626 23 251 0.0 0.0 0.00 0.00 0.00 86 1013.0
20260906051125 23 251 0.0 1.6 0.00 0.00 0.00 86 1013.1
20260906050621 23 251 0.0 1.6 0.00 0.00 0.00 85 1013.2
20260906050116 23 251 0.0 0.0 0.00 0.00 0.00 86 1013.2
20260906045614 23 251 0.0 0.0 0.00 0.00 0.00 86 1013.4
20260906045110 23 244 1.6 3.2 0.00 0.00 0.00 85 1013.3
20260906044606 23 291 3.2 3.2 0.00 0.00 0.00 85 1013.3
20260906044101 23 59 0.0 1.6 0.00 0.00 0.00 86 1012.8
20260906043557 23 57 3.2 3.2 0.00 0.00 0.00 86 1012.9
20260906043052 23 40 0.0 1.6 0.00 0.00 0.00 86 1013.0
20260906042551 23 40 0.0 1.6 0.00 0.00 0.00 87 1013.0
20260906042046 23 40 0.0 1.6 0.00 0.00 0.00 87 1013.0
20260906041542 23 40 0.0 0.0 0.00 0.00 0.00 85 1013.1
20260906041037 23 40 0.0 0.0 0.00 0.00 0.00 85 1013.0
20260906040532 23 40 0.0 0.0 0.00 0.00 0.00 84 1012.9
20260906040028 23 40 0.0 1.6 0.00 0.00 0.00 84 1012.8
20260906035522 23 66 0.0 1.6 0.00 0.00 0.00 85 1012.6
20260906035019 23 70 0.0 3.2 0.00 0.00 0.00 85 1012.8
20260906034518 23 66 3.2 4.8 0.00 0.00 0.00 86 1012.5
20260906034013 24 69 3.2 3.2 0.00 0.00 0.00 86 1012.4
20260906033508 24 59 0.0 1.6 0.00 0.00 0.00 85 1012.4
20260906033004 24 66 3.2 3.2 0.00 0.00 0.00 85 1012.2
20260906032501 24 54 0.0 1.6 0.00 0.00 0.00 84 1012.2
20260906032000 24 36 3.2 4.8 0.00 0.00 0.00 85 1012.4
20260906031455 23 54 6.4 11.3 0.00 0.00 0.00 89 1012.2
20260906030951 24 61 3.2 4.8 0.00 0.00 0.00 88 1012.1
20260906030445 24 81 0.0 1.6 0.00 0.00 0.00 88 1012.0
20260906025940 25 81 1.6 1.6 0.00 0.00 0.00 87 1012.1
20260906025439 25 81 1.6 1.6 0.00 0.00 0.00 86 1012.2
20260906024938 25 80 1.6 1.6 0.00 0.00 0.00 85 1012.2
20260906024439 25 79 1.6 1.6 0.00 0.00 0.00 87 1012.1
20260906023938 24 79 0.0 0.0 0.00 0.00 0.00 88 1012.3
20260906023435 24 79 0.0 0.0 0.00 0.00 0.00 89 1012.3
20260906022935 25 79 0.0 0.0 0.00 0.00 0.00 88 1012.3
20260906022431 25 79 0.0 0.0 0.00 0.00 0.00 87 1012.2
20260906021926 25 79 0.0 1.6 0.00 0.00 0.00 87 1012.4
20260906021426 25 79 1.6 1.6 0.00 0.00 0.00 86 1011.9
20260906020926 25 80 1.6 0.0 0.00 0.00 0.00 84 1012.0
20260906020421 25 80 0.0 1.6 0.00 0.00 0.00 85 1011.9
20260906015915 25 81 0.0 1.6 0.00 0.00 0.00 87 1011.7
20260906015415 25 76 0.0 0.0 0.00 0.00 0.00 88 1011.8
20260906014914 25 76 0.0 1.6 0.00 0.00 0.00 88 1011.9
20260906014414 25 88 1.6 3.2 0.00 0.00 0.00 88 1012.0
20260906013911 25 87 1.6 3.2 0.00 0.00 0.00 86 1012.1
20260906013406 26 89 0.0 0.0 0.00 0.00 0.00 85 1012.0
20260906012902 26 89 0.0 0.0 0.00 0.00 0.00 84 1011.9
20260906012356 26 89 0.0 0.0 0.00 0.00 0.00 83 1011.7
20260906011856 26 89 0.0 0.0 0.00 0.00 0.00 84 1011.5
20260906011351 26 89 0.0 0.0 0.00 0.00 0.00 83 1011.6
20260906010846 26 89 0.0 1.6 0.00 0.00 0.00 85 1011.4
20260906010342 26 88 0.0 0.0 0.00 0.00 0.00 86 1011.3
20260906005838 26 87 0.0 0.0 0.00 0.00 0.00 84 1011.3
20260906005337 26 88 1.6 1.6 0.00 0.00 0.00 83 1011.2
20260906004836 27 210 1.6 1.6 0.00 0.00 0.00 81 1011.3
20260906004336 27 210 1.6 1.6 0.00 0.00 0.00 79 1011.5
20260906003831 27 211 1.6 1.6 0.00 0.00 0.00 77 1011.1
20260906003327 27 245 1.6 1.6 0.00 0.00 0.00 77 1011.4
20260906002822 27 246 0.0 0.0 0.00 0.00 0.00 75 1011.2
20260906002321 27 246 0.0 0.0 0.00 0.00 0.00 77 1011.5
20260906001817 28 246 0.0 0.0 0.00 0.00 0.00 76 1011.5
20260906001312 28 246 0.0 0.0 0.00 0.00 0.00 75 1011.6
20260906000807 28 246 0.0 0.0 0.00 0.00 0.00 74 1011.6
20260906000303 28 247 1.6 3.2 0.00 0.00 0.00 72 1011.6
20260905235756 29 3 3.2 1.6 0.00 0.00 0.00 66 1011.7
20260905235256 29 5 0.0 0.0 0.00 0.00 0.00 67 1011.7
20260905234752 30 5 0.0 0.0 0.00 0.00 0.00 68 1011.6
20260905234247 30 5 0.0 0.0 0.00 0.00 0.00 68 1011.8
20260905233742 30 5 0.0 0.0 0.00 0.00 0.00 64 1011.9
20260905233242 30 5 0.0 0.0 0.00 0.00 0.00 65 1011.8
20260905232741 30 4 0.0 0.0 0.00 0.00 0.00 64 1012.2
20260905232237 30 4 0.0 0.0 0.00 0.00 0.00 61 1012.1
20260905231733 31 4 0.0 0.0 0.00 0.00 0.00 66 1012.1
20260905231228 31 5 0.0 0.0 0.00 0.00 0.00 63 1012.0
20260905230724 31 5 0.0 0.0 0.00 0.00 0.00 61 1011.9
20260905230222 31 5 0.0 0.0 0.00 0.00 0.00 59 1012.0
20260905225721 32 5 0.0 0.0 0.00 0.00 0.00 60 1012.0
20260905225217 32 5 0.0 0.0 0.00 0.00 0.00 58 1011.7
20260905224716 32 5 1.6 1.6 0.00 0.00 0.00 55 1012.0
20260905224211 32 6 3.2 3.2 0.00 0.00 0.00 54 1011.8
20260905223708 33 21 3.2 3.2 0.00 0.00 0.00 54 1011.8
20260905223204 33 53 3.2 6.4 0.00 0.00 0.00 53 1012.1
20260905222700 33 3 1.6 3.2 0.00 0.00 0.00 55 1011.9
20260905222159 33 16 3.2 3.2 0.00 0.00 0.00 53 1012.0
20260905221654 33 26 1.6 3.2 0.00 0.00 0.00 52 1012.0
20260905221151 33 8 4.8 4.8 0.00 0.00 0.00 51 1012.0
20260905220647 33 349 3.2 3.2 0.00 0.00 0.00 52 1012.0
20260905220143 33 328 6.4 4.8 0.00 0.00 0.00 49 1012.0
20260905215642 33 53 3.2 4.8 0.00 0.00 0.00 49 1011.7
20260905215138 34 24 4.8 6.4 0.00 0.00 0.00 49 1011.9
20260905214634 34 61 4.8 4.8 0.00 0.00 0.00 48 1011.7
20260905214129 34 300 4.8 4.8 0.00 0.00 0.00 50 1011.7
20260905213624 34 328 6.4 9.7 0.00 0.00 0.00 47 1011.6
20260905213119 34 1 3.2 6.4 0.00 0.00 0.00 49 1011.8
20260905212615 34 19 3.2 4.8 0.00 0.00 0.00 48 1011.7
20260905212114 34 335 9.7 12.9 0.00 0.00 0.00 46 1011.8
20260905211609 34 289 1.6 4.8 0.00 0.00 0.00 49 1012.1
20260905211105 34 337 6.4 9.7 0.00 0.00 0.00 47 1011.6
20260905210601 34 348 3.2 9.7 0.00 0.00 0.00 49 1011.7
20260905210055 35 339 9.7 11.3 0.00 0.00 0.00 45 1011.8
20260905205555 34 9 1.6 3.2 0.00 0.00 0.00 51 1011.7
20260905205054 34 289 8.0 11.3 0.00 0.00 0.00 47 1011.8
20260905204549 34 343 3.2 3.2 0.00 0.00 0.00 48 1011.6
20260905204044 34 74 8.0 9.7 0.00 0.00 0.00 46 1011.8
20260905203544 35 320 6.4 9.7 0.00 0.00 0.00 46 1011.8
20260905203039 35 238 3.2 4.8 0.00 0.00 0.00 45 1012.0
20260905202535 35 284 4.8 4.8 0.00 0.00 0.00 46 1012.1
20260905202030 35 15 6.4 6.4 0.00 0.00 0.00 46 1012.2
20260905201526 34 341 1.6 1.6 0.00 0.00 0.00 48 1012.2
20260905201025 34 334 3.2 6.4 0.00 0.00 0.00 48 1012.3
20260905200521 34 344 4.8 9.7 0.00 0.00 0.00 46 1012.3
20260905200021 34 230 3.2 9.7 0.00 0.00 0.00 47 1012.4
20260905195520 35 173 3.2 9.7 0.00 0.00 0.00 45 1012.6
20260905195016 35 241 4.8 4.8 0.00 0.00 0.00 45 1012.4
20260905194516 34 310 3.2 4.8 0.00 0.00 0.00 48 1012.5
20260905194015 34 269 1.6 6.4 0.00 0.00 0.00 48 1012.6
20260905193510 34 277 0.0 3.2 0.00 0.00 0.00 50 1012.8
20260905193005 33 249 3.2 4.8 0.00 0.00 0.00 47 1012.8
20260905192500 33 269 6.4 6.4 0.00 0.00 0.00 47 1012.8
20260905191956 34 324 3.2 6.4 0.00 0.00 0.00 48 1013.1
20260905191455 35 286 3.2 4.8 0.00 0.00 0.00 46 1013.1
20260905190954 34 122 1.6 1.6 0.00 0.00 0.00 46 1013.1
20260905190452 34 211 4.8 9.7 0.00 0.00 0.00 44 1013.1
20260905185951 33 202 1.6 3.2 0.00 0.00 0.00 48 1013.3
20260905185447 33 213 3.2 6.4 0.00 0.00 0.00 45 1013.3
20260905184945 33 256 6.4 6.4 0.00 0.00 0.00 49 1013.2
20260905184440 33 211 3.2 6.4 0.00 0.00 0.00 47 1013.4
20260905183938 33 249 3.2 6.4 0.00 0.00 0.00 47 1013.4
20260905183433 33 271 6.4 9.7 0.00 0.00 0.00 47 1013.6
20260905182929 33 271 6.4 9.7 0.00 0.00 0.00 47 1013.7
20260905182427 33 198 6.4 6.4 0.00 0.00 0.00 48 1013.5
20260905181923 33 237 4.8 9.7 0.00 0.00 0.00 46 1013.3
20260905181418 32 201 6.4 9.7 0.00 0.00 0.00 50 1013.6
20260905180917 32 137 4.8 11.3 0.00 0.00 0.00 49 1014.0
20260905180412 32 192 8.0 11.3 0.00 0.00 0.00 48 1013.8
20260905175912 32 166 1.6 6.4 0.00 0.00 0.00 51 1013.9
20260905175412 32 217 3.2 12.9 0.00 0.00 0.00 50 1014.0
20260905174907 32 225 0.0 4.8 0.00 0.00 0.00 49 1013.9
20260905174403 32 182 6.4 12.9 0.00 0.00 0.00 50 1013.9
20260905173858 32 199 6.4 11.3 0.00 0.00 0.00 49 1014.0
20260905173354 32 195 6.4 6.4 0.00 0.00 0.00 47 1014.1
20260905172849 32 219 4.8 6.4 0.00 0.00 0.00 46 1013.9
20260905172347 32 165 4.8 11.3 0.00 0.00 0.00 45 1014.2
20260905171843 32 179 6.4 9.7 0.00 0.00 0.00 49 1014.4
20260905171340 31 200 8.0 11.3 0.00 0.00 0.00 48 1014.4
20260905170836 31 170 3.2 4.8 0.00 0.00 0.00 54 1014.3
20260905170332 31 248 3.2 4.8 0.00 0.00 0.00 52 1014.5
20260905165831 31 284 3.2 4.8 0.00 0.00 0.00 50 1014.6
20260905165327 31 182 6.4 4.8 0.00 0.00 0.00 52 1014.5
20260905164826 31 204 4.8 4.8 0.00 0.00 0.00 51 1014.7
20260905164321 30 154 9.7 12.9 0.00 0.00 0.00 52 1014.6
20260905163817 30 215 3.2 3.2 0.00 0.00 0.00 54 1014.5
20260905163313 30 205 8.0 9.7 0.00 0.00 0.00 55 1014.5
20260905162809 30 140 9.7 12.9 0.00 0.00 0.00 58 1014.5
20260905162309 30 186 4.8 9.7 0.00 0.00 0.00 55 1014.6
20260905161803 30 224 1.6 9.7 0.00 0.00 0.00 55 1014.7
20260905161302 30 178 6.4 11.3 0.00 0.00 0.00 58 1014.5
20260905160801 30 188 9.7 11.3 0.00 0.00 0.00 58 1014.7
20260905160301 29 180 11.3 12.9 0.00 0.00 0.00 58 1014.7
20260905155756 29 193 6.4 9.7 0.00 0.00 0.00 59 1014.9
20260905155254 29 211 4.8 9.7 0.00 0.00 0.00 61 1015.0
20260905154749 29 199 9.7 12.9 0.00 0.00 0.00 63 1015.0
20260905154245 28 157 6.4 6.4 0.00 0.00 0.00 62 1015.2
20260905153740 28 160 3.2 6.4 0.00 0.00 0.00 61 1015.2
20260905153236 28 203 9.7 11.3 0.00 0.00 0.00 59 1015.3
20260905152731 28 137 3.2 4.8 0.00 0.00 0.00 63 1015.1
20260905152230 28 137 4.8 6.4 0.00 0.00 0.00 64 1015.4
20260905151730 28 190 6.4 9.7 0.00 0.00 0.00 61 1015.1
20260905151227 28 166 3.2 9.7 0.00 0.00 0.00 65 1015.3
20260905150726 28 180 11.3 14.5 0.00 0.00 0.00 66 1015.5
20260905150226 27 176 6.4 9.7 0.00 0.00 0.00 66 1015.2
20260905145723 27 148 3.2 9.7 0.00 0.00 0.00 64 1015.3
20260905145218 27 150 4.8 11.3 0.00 0.00 0.00 64 1015.5
20260905144717 27 187 9.7 14.5 0.00 0.00 0.00 63 1015.7
20260905144212 27 116 6.4 6.4 0.00 0.00 0.00 67 1015.3
20260905143711 26 152 3.2 4.8 0.00 0.00 0.00 70 1015.3
20260905143206 26 138 1.6 3.2 0.00 0.00 0.00 71 1015.3
20260905142704 26 68 3.2 4.8 0.00 0.00 0.00 70 1015.8
20260905142205 27 79 6.4 9.7 0.00 0.00 0.00 67 1015.7
20260905141700 27 80 3.2 9.7 0.00 0.00 0.00 68 1015.6
20260905141156 26 159 3.2 4.8 0.00 0.00 0.00 69 1015.7
20260905140651 26 228 4.8 6.4 0.00 0.00 0.00 71 1015.5
20260905140151 26 156 4.8 6.4 0.00 0.00 0.00 75 1015.8
20260905135646 25 131 4.8 11.3 0.00 0.00 0.00 75 1015.8
20260905135141 25 183 6.4 9.7 0.00 0.00 0.00 76 1015.6
20260905134636 24 116 4.8 11.3 0.00 0.00 0.00 78 1015.7
20260905134134 23 119 6.4 20.9 0.00 0.00 0.00 81 1015.8
20260905133630 23 68 8.0 12.9 0.00 0.00 0.00 82 1015.7
20260905133130 23 66 8.0 11.3 0.00 0.00 0.00 83 1015.9
20260905132630 23 358 8.0 14.5 0.00 0.00 0.00 84 1015.8
20260905132125 23 71 9.7 25.7 0.00 0.00 0.00 83 1015.9
20260905131620 23 86 11.3 17.7 0.00 0.00 0.00 84 1015.9
20260905131115 22 76 17.7 29.0 0.00 0.00 0.00 83 1016.1
20260905130615 22 65 17.7 22.5 0.00 0.00 0.00 83 1016.2
20260905130114 22 68 8.0 24.1 0.00 0.00 0.00 83 1016.1
20260905125609 23 48 14.5 20.9 0.00 0.00 0.00 82 1016.0
20260905125104 23 65 6.4 14.5 0.00 0.00 0.00 80 1016.0
20260905124601 23 50 14.5 24.1 0.00 0.00 0.00 79 1015.9
20260905124057 23 43 14.5 20.9 0.00 0.00 0.00 79 1016.1
20260905123552 23 33 9.7 9.7 0.00 0.00 0.00 80 1015.8
20260905123049 23 66 6.4 9.7 0.00 0.00 0.00 79 1015.2
20260905122548 23 34 1.6 4.8 0.00 0.00 0.00 80 1015.2
20260905122043 23 51 3.2 6.4 0.00 0.00 0.00 81 1015.2
20260905121544 23 49 6.4 6.4 0.00 0.00 0.00 81 1015.1
20260905121039 23 101 6.4 6.4 0.00 0.00 0.00 83 1015.0
20260905120538 23 46 4.8 6.4 0.00 0.00 0.00 83 1015.4
20260905120033 23 54 6.4 16.1 0.00 0.00 0.00 83 1015.2
20260905115532 23 43 9.7 11.3 0.00 0.00 0.00 84 1015.5
20260905115027 23 59 6.4 9.7 0.00 0.00 0.00 85 1015.6
20260905114526 23 32 3.2 3.2 0.00 0.00 0.00 83 1015.2
20260905114026 23 35 3.2 4.8 0.00 0.00 0.00 83 1015.0